Regional Weather Roundup
Issued by NWS Midland/Odessa, TX

Home | Current Version | Previous Version | Text Only | Print | Product List | Glossary On
Versions: 1 2 3 4 5 6 7 8 9 10 11 12 13 14 15 16 17 18 19 20 21 22 23 24 25 26 27 28 29 30 31 32 33 34 35 36 37 38 39 40 41 42 43 44 45 46 47 48 49 50
000
ASUS44 KMAF 110310
RWRMAF
MIDLAND AREA WEATHER ROUNDUP
NATIONAL WEATHER SERVICE MIDLAND TX
900 PM CST WED FEB 10 2016

...IN SOUTHWEST TEXAS AND SOUTHEAST NEW MEXICO...

CITY           SKY/WX    TMP DP  RH WIND       PRES   REMARKS
ALPINE         CLEAR     53  13  20 SW9       30.33F
ANDREWS        FAIR      55  19  24 SW9       30.18S
ARTESIA        CLEAR     57  19  23 W18       30.16F
BIG SPRING     CLEAR     50  22  32 S10       30.18F
CARLSBAD       CLEAR     53  18  25 W5        30.16F
DRYDEN           N/A     62  23  22 SE9       30.20F
FORT STOCKTON  CLEAR     54  28  36 S7        30.20F
GUAD PASS      CLEAR     54  12  18 SW16      30.29S
HOBBS          CLEAR     46  16  29 SW6       30.19S
MARFA          CLEAR     41  10  28 E3        30.31S
MIDLAND AIRPK  CLEAR     62  21  21 SW8       30.19S
MIDLAND INTL   CLEAR     58  22  24 S9        30.18S
ODESSA         CLEAR     56  21  25 S7        30.19S
PECOS          CLEAR     51  23  33 SW8       30.18S
PRESIDIO       FAIR      58  18  20 N9        30.21S
SEMINOLE       CLEAR     52  21  28 SW9       30.18S
SNYDER           N/A     51  23  32 SW10      30.14S
WINK           CLEAR     51  22  31 S8        30.17S
$$
...OTHER STATIONS IN TEXAS...

CITY           SKY/WX    TMP DP  RH WIND       PRES   REMARKS
ABILENE        CLEAR     58  24  27 S6        30.11F
AMARILLO       CLEAR     47  16  29 SW8       30.07F
AUSTIN         CLEAR     57  34  41 S8        30.19S
BROWNSVILLE    PTCLDY    56  47  71 S8        30.31S
CORPUS CHRISTI CLEAR     59  49  69 S14       30.26F
DALLAS FTW     CLEAR     57  33  40 S10       30.05F
DEL RIO        CLEAR     62  27  26 E6        30.19F
EL PASO        CLEAR     53  15  22 SE3       30.24S
HOUSTON INT    CLEAR     57  43  59 S8        30.23S
LUBBOCK        CLEAR     53  17  24 SW9       30.12S
SAN ANGELO     CLEAR     59  26  28 S10       30.16S
SAN ANTONIO    CLEAR     65  29  25 S3        30.22S
WACO           CLEAR     59  35  40 S12       30.12F
WICHITA FALLS  NOT AVBL
$$
...OTHER LOCATIONS IN NEW MEXICO...

CITY           SKY/WX    TMP DP  RH WIND       PRES   REMARKS
ALAMAGORDO     CLEAR     50  14  23 NE7       30.25F
ALBUQUERQUE    CLOUDY    50  18  28 N9        30.30S
CANNON AFB     CLEAR     53  15  22 W12       30.14S
CLOVIS         CLEAR     54  19  26 W14       30.15S
HOLLOMAN AFB   CLOUDY    46  13  26 NE7       30.24S
ROSWELL        CLEAR     49  19  30 NW5       30.16S
RUIDOSO          N/A     45  10  24 W10       30.33F WCI  39
SANTA FE       CLOUDY    39  19  44 N6        30.30R WCI  35
TRUTH OR CONSE CLEAR     54  13  19 W5        30.26S
TUCUMCARI      CLEAR     50  13  22 W12       30.09S
$$



USA.gov is the U.S. government's official web portal to all federal, state and local government web resources and services.